Location: Nitra
(0.0000°N, 18.0833°E)
Time: 20:00:52
(UTC+02:00)

A-11 Canister half - Pass Details

Date: 02 April 2023
Orbit: 1526 x 1682 km, 47.3° (Epoch: 08 June)

Event Time Altitude Azimuth Distance (km) Brightness Sun altitude
Rises 00:37:53 0° 307° (NW) 4,728 - -84.2°
Reaches altitude 10° 00:41:06 10° 302° (WNW) 3,728 - -84.6°
Maximum altitude 00:50:00 48° 230° (SW) 1,911 - -85.3°
Drops below altitude 10° 00:58:51 10° 158° (SSE) 3,692 - -84.9°
Sets 01:02:04 0° 152° (SSE) 4,679 - -84.6°
